[[{"header":{"parameterUnit":"m.s-1","parameterCategory":1,"la1":30.2992,"la2":30.254,"lo1":-89.0895,"lo2":-89.0443,"dy":0.0025,"dx":0.0025,"nx":19,"ny":19,"refTime":"2026-05-16T09:00:00:Z","depth":0,"parameterNumber":2,"parameterNumberName":"U-component_of_WINDS"},"data":[0,0,0,-4.7363,-4.7367,-4.7545,-4.7546,-4.7774,-4.7776,0,0,0,0,0,0,0,0,0,0,0,-4.7311,-4.7313,-4.7363,-4.7367,-4.7545,-4.7546,-4.7774,-4.7776,0,0,0,0,0,0,0,0,0,0,0,-4.7311,-4.7313,-4.7315,-4.7368,-4.7545,-4.7546,-4.7773,-4.7639,0,0,0,0,0,0,0,0,0,0,-4.7466,-4.7419,-4.7312,-4.7315,-4.7369,-4.7545,-4.7546,-4.7632,-4.7647,-4.7694,0,-4.7737,0,-4.776,-4.7792,-4.7793,0,0,0,-4.7367,-4.7407,-4.7454,-4.7315,-4.7371,-4.7544,-4.7465,-4.7641,-4.7658,-4.7714,-4.774,-4.7748,-4.7764,-4.7793,-4.7794,-4.8069,-4.807,0,0,-4.7357,-4.7344,-4.7442,-4.7465,-4.7438,-4.7459,-4.747,-4.7651,-4.7678,-4.7741,-4.7754,-4.7768,-4.7795,-4.7797,-4.8068,-4.8069,0,0,0,-4.7329,-4.7337,-4.738,-4.7455,-4.7487,-4.7464,-4.7477,-4.767,-4.7685,-4.7756,-4.7771,-4.7796,-4.7799,-4.8066,-4.8068,-4.8119,0,0,0,-4.7323,-4.7321,-4.7375,-4.7369,-4.7484,-4.7581,-4.7492,-4.7672,-4.7693,-4.7769,-4.7796,-4.7801,-4.8065,-4.8067,-4.8114,-4.8144,0,0,0,-4.73,-4.7318,-4.7344,-4.7368,-4.7444,-4.7578,-4.7604,-4.7677,-4.7702,-4.7793,-4.7802,-4.8064,-4.8067,-4.811,-4.8137,-4.8211,0,0,0,-4.727,-4.7387,-4.7345,-4.7481,-4.7443,-4.7609,-4.7603,-4.7727,-4.7811,-4.7797,-4.8065,-4.8068,-4.8109,-4.8133,-4.8206,-4.8268,-4.8293,0,0,-4.741,-4.7403,-4.7485,-4.7452,-4.7622,-4.7583,-4.7761,-4.7851,-4.7872,-4.8002,-4.8009,-4.8116,-4.8137,-4.821,-4.8444,-4.8463,0,0,0,-4.7525,-4.7582,-4.7631,-4.771,-4.7782,-4.7845,-4.7909,-4.7942,-4.8053,-4.7936,-4.8164,-4.8177,-4.822,-4.825,-4.8267,-4.8304,-4.8082,-4.8082,-4.8081,-4.7701,-4.7723,-4.7858,-4.79,-4.7978,-4.8043,-4.8107,-4.8163,-4.8162,-4.8216,-4.8253,-4.8393,-4.8427,-4.844,-4.8478,-4.829,-4.829,-4.829,-4.8291,-4.7906,-4.799,-4.7987,-4.8116,-4.8138,-4.8247,-4.8316,-4.8311,-4.8416,-4.8366,-4.8405,-4.8346,-4.8461,-4.8496,-4.8295,-4.8294,-4.8293,-4.8293,-4.8293,-4.8022,-4.8066,-4.8105,-4.8222,-4.831,-4.835,-4.8451,-4.8468,-4.8484,-4.8523,-4.8564,-4.8563,-4.8562,-4.8542,-4.8543,-4.8543,-4.8544,-4.8544,-4.8544,-4.8125,-4.8168,-4.825,-4.8337,-4.839,-4.8462,-4.853,-4.8583,-4.8646,-4.865,-4.8651,-4.8643,-4.847,-4.8424,-4.8552,-4.855,-4.8549,-4.8549,-4.8548,-4.8319,-4.8278,-4.8405,-4.8459,-4.8562,-4.8647,-4.8669,-4.8776,-4.8822,-4.8871,-4.8857,-4.8727,-4.872,-4.8707,-4.8669,-4.8853,-4.8853,-4.8853,-4.8853,-4.8414,-4.8414,-4.8547,-4.8631,-4.8716,-4.8749,-4.8891,-4.8946,-4.8996,-4.9026,-4.9003,-4.8956,-4.8941,-4.8944,-4.8925,-4.889,-4.9126,-4.9126,-4.9126,-4.8534,-4.8543,-4.866,-4.8709,-4.8791,-4.8861,-4.8995,-4.9092,-4.9141,-4.9138,-4.905,-4.9038,-4.8962,-4.8936,-4.8927,-4.8898,-4.8833,0,0]},{"header":{"parameterUnit":"m.s-1","parameterCategory":1,"la1":30.2992,"la2":30.254,"lo1":-89.0895,"lo2":-89.0443,"dy":0.0025,"dx":0.0025,"nx":19,"ny":19,"refTime":"2026-05-16T09:00:00:Z","depth":0,"parameterNumber":3,"parameterNumberName":"V-component_of_WINDS"},"data":[0,0,0,3.3036,3.3037,3.3101,3.3101,3.3187,3.3188,0,0,0,0,0,0,0,0,0,0,0,3.302,3.3021,3.3035,3.3037,3.3101,3.3101,3.3187,3.3188,0,0,0,0,0,0,0,0,0,0,0,3.3019,3.302,3.3021,3.3037,3.3101,3.3101,3.3187,3.3137,0,0,0,0,0,0,0,0,0,0,3.3074,3.3063,3.302,3.3021,3.3038,3.3101,3.3101,3.3134,3.314,3.316,0,3.318,0,3.3185,3.3194,3.3194,0,0,0,3.3034,3.3058,3.3073,3.3021,3.3038,3.3101,3.3071,3.3137,3.3144,3.3167,3.3181,3.3184,3.3187,3.3194,3.3195,3.3325,3.3326,0,0,3.3031,3.3033,3.3068,3.3077,3.3069,3.3069,3.3073,3.3141,3.3155,3.3181,3.3186,3.3188,3.3195,3.3196,3.3324,3.3325,0,0,0,3.3022,3.303,3.3043,3.3074,3.3085,3.3071,3.3076,3.3152,3.3156,3.3187,3.3189,3.3196,3.3197,3.3324,3.3325,3.3364,0,0,0,3.302,3.3025,3.3042,3.3043,3.3084,3.312,3.3086,3.3152,3.3159,3.3189,3.3196,3.3198,3.3323,3.3324,3.3362,3.3382,0,0,0,3.3014,3.3025,3.3035,3.3043,3.3071,3.3118,3.3126,3.3153,3.3161,3.3194,3.3198,3.3322,3.3324,3.3359,3.3378,3.3418,0,0,0,3.3008,3.3068,3.3036,3.3104,3.3071,3.3143,3.3126,3.3179,3.3212,3.3196,3.3323,3.3325,3.3358,3.3375,3.3415,3.3451,3.3467,0,0,3.3085,3.3077,3.3117,3.309,3.3169,3.3133,3.3218,3.3245,3.3245,3.3298,3.3301,3.3363,3.3378,3.3417,3.3554,3.3566,0,0,0,3.3142,3.3171,3.3191,3.3224,3.3248,3.3271,3.3286,3.3296,3.3342,3.3274,3.3388,3.3397,3.342,3.3437,3.3447,3.3467,3.3333,3.3333,3.3332,3.3251,3.3251,3.3317,3.3325,3.3358,3.3374,3.34,3.3417,3.3405,3.3432,3.3447,3.353,3.3551,3.3559,3.3579,3.3467,3.3467,3.3467,3.3467,3.3363,3.3403,3.339,3.3449,3.3448,3.3497,3.3516,3.3507,3.3552,3.3518,3.3538,3.3501,3.3572,3.359,3.347,3.347,3.3469,3.3469,3.3469,3.3434,3.3453,3.3467,3.3517,3.3555,3.356,3.3606,3.3603,3.36,3.362,3.3637,3.3636,3.3635,3.3629,3.3629,3.3629,3.363,3.363,3.363,3.3502,3.3516,3.3555,3.3589,3.3611,3.3639,3.3658,3.3679,3.3702,3.3696,3.3696,3.3682,3.358,3.3554,3.3634,3.3634,3.3633,3.3633,3.3632,3.3614,3.3589,3.3649,3.3672,3.3712,3.375,3.3747,3.3791,3.3808,3.3831,3.3814,3.3739,3.373,3.3721,3.37,3.3813,3.3813,3.3813,3.3813,3.3673,3.367,3.3733,3.3769,3.3804,3.3809,3.3877,3.3893,3.3905,3.3916,3.39,3.3871,3.3863,3.3859,3.3848,3.3828,3.3971,3.3971,3.3971,3.3743,3.3743,3.3802,3.3816,3.3847,3.3874,3.3939,3.398,3.3989,3.3978,3.3924,3.3918,3.3872,3.3857,3.3843,3.3826,3.3789,0,0]}]]